Location: Casper
(42.8670°N, 106.3130°W)
Time: 06:05:29
(UTC-06:00)

Daily predictions for brighter satellites

Satellite Brightness Start Highest point End
(mag) Time Altitude Azimuth Time Altitude Azimuth Time Altitude Azimuth
Cosmos 1934 Rocket 4.2 20:12:36 10° SSE 20:18:26 49° E 20:24:23 10° NNE
USA 186 2.3 20:17:47 10° SE 20:20:39 34° ENE 20:23:25 10° N
OTV 4 1.5 20:18:13 10° WSW 20:20:55 31° S 20:23:36 10° ESE
Cosmos 2278 4.3 20:16:43 10° SSE 20:21:44 34° ESE 20:26:48 10° NE
Cosmos 1697 Rocket 4.4 20:20:29 10° ESE 20:22:25 12° E 20:24:20 10° ENE
DELTA 2 R/B (1) 3.7 20:18:20 10° WSW 20:23:51 63° S 20:29:20 10° E
CZ-4B DEB 2.9 20:22:14 10° SSE 20:25:30 85° WSW 20:28:48 10° NNW
H-2A R/B 2.9 20:22:16 10° SSE 20:26:04 57° ENE 20:29:55 10° N
ATLAS CENTAUR R/B 3.3 20:25:33 10° WSW 20:30:20 42° NW 20:35:01 10° NNE
Cosmos 1939 Rocket 4.4 20:28:48 10° ESE 20:31:57 22° ENE 20:35:08 10° NNE
Meteor 1-23 Rocket 4.3 20:27:05 10° N 20:32:45 89° E 20:38:26 10° S
Cosmos 1544 Rocket 3.5 20:28:42 10° S 20:33:01 66° E 20:37:25 10° NNE
Cosmos 2369 4.2 20:29:26 10° S 20:34:37 38° ESE 20:39:50 10° NE
Iridium 4 Rocket 4.3 20:30:09 10° NNE 20:34:43 30° ENE 20:38:54 10° SE
EP 2 4.1 20:36:20 10° SSW 20:38:54 69° ESE 20:41:41 10° NE
CZ-2D R/B 3.3 20:37:15 10° SSE 20:41:07 85° WSW 20:45:01 10° NNW
Cosmos 1980 Rocket 4.0 20:44:07 11° E 20:44:07 11° E 20:45:11 10° E
Cosmos 1633 4.4 20:47:50 10° SW 20:51:13 35° WNW 20:54:37 10° N
Cosmos 1346 Rocket 2.7 20:48:24 10° N 20:52:22 86° E 20:56:20 10° S
ERS-1 Rocket 3.3 20:47:36 10° SE 20:52:25 48° ENE 20:57:14 10° N
Cosmos 1536 4.4 20:49:05 10° SSW 20:52:50 38° WNW 20:56:37 10° N
NOSS 2-1 (D) 4.0 20:53:05 10° SW 20:56:56 60° NW 21:01:24 10° NNE
RESURS DK-1 4.3 20:54:44 10° N 20:57:25 16° NE 20:59:18 13° E
NOSS 2-1 (C) 4.0 20:54:06 10° SW 20:57:57 60° NW 21:02:26 10° NNE
Cosmos 1821 Rocket 4.3 20:52:35 10° SSW 20:58:40 68° W 21:04:45 10° N
Cosmos 1605 Rocket 4.0 20:55:09 10° S 21:01:29 75° E 21:07:46 10° N
YAOGAN 11 4.1 21:04:00 11° SSE 21:08:18 76° ENE 21:12:48 10° N
Cosmos 2227 Rocket 2.2 21:03:39 10° NNW 21:09:21 90° WSW 21:14:14 14° SSE
Cosmos 1500 3.7 21:09:17 22° SE 21:11:04 35° E 21:14:33 10° NNE
ALOS 3.7 21:07:31 10° SSW 21:11:52 39° W 21:16:16 10° NNW
Cosmos 2082 3.8 21:16:24 10° NNW 21:22:01 77° WSW 21:26:26 17° SSE
Cosmos 1656 3.7 21:17:07 10° S 21:22:35 53° ESE 21:27:59 10° NNE
Cosmos 2297 Rocket 2.2 21:19:30 10° NNW 21:25:12 87° ENE 21:28:59 22° SSE
Cosmos 1340 4.0 21:23:14 10° NNE 21:26:21 23° ENE 21:26:23 23° ENE
H-2A R/B 2.1 21:26:32 32° SE 21:28:08 55° ENE 21:32:12 10° N
Lacrosse 5 2.7 21:23:32 10° NW 21:28:20 41° NNE 21:30:48 24° E
deb Chang Zheng 4 3.7 21:27:38 10° NNE 21:32:02 55° E 21:34:30 24° S
Cosmos 1626 Rocket 3.8 21:27:42 10° NNW 21:32:06 69° W 21:35:31 16° S
Cosmos 1515 3.6 21:28:34 10° N 21:32:26 88° ENE 21:34:13 31° S
USA 215 4.0 21:29:23 19° E 21:33:50 45° NNE 21:39:59 10° NW
SPOT 5 3.1 21:31:47 30° SE 21:34:09 57° ENE 21:38:56 10° N
Cosmos 1975 3.2 21:32:40 10° SSW 21:36:44 66° W 21:40:51 10° N
BREEZE-M TANK 3.1 21:26:36 10° WNW 21:37:27 81° SSW 21:38:58 38° ESE
Cosmos 2298 Rocket 4.0 21:33:34 10° NNW 21:38:54 79° ENE 21:41:27 32° SSE
Cosmos 1602 Rocket 4.2 21:35:41 10° NNW 21:40:04 56° W 21:43:33 15° S
Cosmos 1743 3.0 21:41:33 46° E 21:41:35 46° E 21:45:21 10° NNE
Cosmos 1758 Rocket 4.5 21:38:01 10° NNE 21:41:54 30° ENE 21:41:58 30° ENE
YAOGAN 6 2.7 21:46:42 53° E 21:46:47 53° ENE 21:50:24 10° N
Cosmos 1459 Rocket 3.8 21:43:29 19° S 21:47:58 70° E 21:54:03 10° NNE
Cosmos 1461 4.1 21:44:57 10° NW 21:48:38 34° WSW 21:50:12 24° SSW
Lacrosse 5 rocket 1.2 21:45:02 10° NW 21:48:41 60° SW 21:49:06 55° SSW
Tiangong 1 1.2 21:46:03 10° W 21:48:47 66° W 21:48:47 66° W
Nimbus 7 Rocket 4.4 21:44:10 10° NNE 21:50:15 77° ESE 21:56:19 10° S
H-2A R/B 3.3 21:50:51 23° ENE 21:51:13 23° ENE 21:55:05 10° NNE
Envisat 3.4 21:51:27 22° S 21:54:43 60° W 21:59:45 10° NNW
Cosmos 1066 Rocket 4.3 21:49:08 10° NNW 21:54:47 78° W 21:58:03 27° S
OTV 4 3.0 21:54:33 10° WSW 21:55:25 15° SW 21:55:25 15° SW
Cosmos 2098 Rocket 4.4 21:55:16 36° SE 21:57:27 46° E 22:03:18 10° NNE
GEOS 3 Rocket 4.4 21:52:55 10° NE 21:56:08 31° E 21:56:08 31° E
PSLV R/B 4.2 21:59:10 39° N 21:59:10 39° N 22:01:15 10° N
Cosmos 1842 4.4 21:55:23 10° N 21:58:08 30° NE 21:58:08 30° NE
MetOp-A 4.0 21:57:16 39° SSE 21:59:21 86° ENE 22:04:44 10° NNW
Cosmos 1937 Rocket 3.4 21:54:28 10° NNW 21:59:46 79° ENE 22:01:13 49° SSE
Cosmos 2058 Rocket 4.0 22:03:00 34° ENE 22:03:00 34° ENE 22:06:14 10° NNE
CZ-4 SHROUD 4.4 22:03:38 36° N 22:03:38 36° N 22:05:38 10° N
BREEZE-M DEB (TANK) 2.2 22:03:03 10° WNW 22:05:25 72° NNE 22:05:25 72° NNE
Cosmos 1697 Rocket 2.6 21:59:48 10° SSW 22:05:28 87° ESE 22:11:09 10° NNE
Cosmos 2150 Rocket 4.1 22:00:58 10° NNW 22:06:05 69° WSW 22:07:47 42° S
Cosmos 1939 Rocket 4.4 22:04:27 19° SSW 22:06:41 33° W 22:10:29 10° NNW
SL-16 R/B 4.2 22:11:47 13° ENE 22:11:47 13° ENE 22:12:44 10° NE
SPOT 1/Viking Rocket 3.5 22:08:45 56° SE 22:09:46 71° ENE 22:14:58 10° N
Cosmos 2084 3.3 22:05:47 10° NW 22:09:50 73° SW 22:09:58 72° SW
Cosmos 1802 Rocket 4.0 22:05:46 24° S 22:09:51 88° E 22:16:20 10° N
DELTA 2 R/B (1) 3.8 22:04:39 10° W 22:10:01 50° SSW 22:10:34 48° S
ASTEX 1 3.3 22:06:18 10° N 22:11:21 86° E 22:12:35 52° S
NOAA 11 4.1 22:11:33 54° SE 22:12:40 70° ENE 22:18:08 10° N
SL-08 RB Rocket 3.9 22:13:20 57° ENE 22:13:21 57° ENE 22:17:56 10° N
Cosmos 1606 Rocket 3.4 22:15:20 85° ESE 22:15:22 86° E 22:19:49 10° N
Cosmos 990 Rocket 3.8 22:11:51 10° NNW 22:17:09 83° ENE 22:17:52 67° SE
SL-08 R/B 4.4 22:15:23 46° SSE 22:17:16 71° E 22:23:26 10° NNE
Terra 2.9 22:19:09 31° NE 22:19:09 31° NE 22:22:51 10° N
CZ-4B R/B 3.4 22:19:48 10° NNE 22:23:58 61° ENE 22:23:58 61° ENE
Cosmos 1980 Rocket 2.0 22:25:46 54° S 22:27:07 81° ESE 22:32:51 10° NNE
Cosmos 2016 Rocket 4.0 22:28:04 36° SSW 22:30:44 77° W 22:36:57 10° N
ARGOS 3.1 22:31:03 67° S 22:31:47 82° WSW 22:37:12 10° NNW
RESURS DK-1 3.1 22:31:46 10° NW 22:35:13 48° W 22:35:13 48° W
Cosmos 1666 4.3 22:37:38 30° N 22:37:38 30° N 22:39:41 10° N
Cosmos 1125 Rocket 3.8 22:34:51 10° NNW 22:39:32 52° NE 22:39:32 52° NE
Cosmos 1726 Rocket 4.0 22:40:21 59° WNW 22:40:21 59° WNW 22:44:25 10° N
CZ-4C R/B 4.4 22:43:33 47° NNE 22:43:33 47° NNE 22:46:52 10° N
Cosmos 1763 Rocket 3.4 22:44:50 76° WNW 22:44:51 76° WNW 22:49:57 10° NNE
Tsikada Rocket 4.1 22:50:06 10° N 22:56:31 74° W 22:57:24 64° SSW
Cosmos 2263 Rocket 3.1 22:51:39 10° N 22:56:22 36° NE 22:56:22 36° NE
Cosmos 2322 Rocket 3.3 23:00:20 32° NE 23:00:20 32° NE 23:03:26 10° NNE
Cosmos 2360 4.2 23:01:40 77° WNW 23:01:40 77° WNW 23:07:26 10° NNE
Cosmos 841 Rocket 3.9 23:04:42 59° WNW 23:04:44 59° WNW 23:09:55 10° NNE
Lacrosse 5 3.1 23:06:33 10° WNW 23:09:59 34° W 23:09:59 34° W
USA 215 3.2 23:16:43 68° SW 23:16:43 68° SW 23:23:10 10° NW
H-2A R/B 3.1 23:31:30 38° WNW 23:31:30 38° WNW 23:35:08 10° NNW
SL-16 R/B 3.1 23:53:37 46° NNW 23:53:37 46° NNW 23:57:52 10° NNE
